Presure
166 157 144 149 177 173 161 155 198 182 180 191 172 226 199 197 211 194 195 197 184 188 183 196 196 200 199 198 208 205 202 205 206 208 209 208 205 202 208 206 213 200 199 192 186 186 196
164 157 155 140 157 150 145 173 159 164 172 205 182 205 219 205 190 202 210 214 182 184 200 183 176 169 183 184 192 210 199 209 215 203 209 206 205 202 199 191 194 191 185 193 203 194 180
168 169 172 168 131 176 174 143 157 135 181 181 189 171 205 214 200 192 197 202 206 182 183 257 196 192 182 198 189 196 198 181 179 184 191 194 210 201 201 184 187 204 193 178 183 183 177
163 150 164 168 167 151 157 172 156 171 198 164 197 188 173 200 205 206 202 207 200 181 191 236 237 199 174 172 165 174 156 171 172 166 178 185 186 172 176 191 178 187 185 175 177 177 176
164 154 149 155 159 174 151 162 163 176 185 209 204 170 179 199 195 199 202 200 198 204 160 154 187 220 195 187 178 182 174 164 167 174 180 175 172 173 163 161 171 171 174 176 168 165 170
153 152 152 158 143 157 166 144 165 172 168 186 195 165 178 200 194 200 193 201 197 204 185 193 149 167 214 198 187 182 178 172 176 175 171 177 179 166 161 168 168 167 172 166 169 161 171
164 156 145 157 167 170 164 152 130 171 181 173 182 174 165 212 194 203 196 195 197 190 195 197 214 186 159 204 209 198 177 177 182 180 185 178 177 173 165 168 166 170 171 166 162 160 171
154 154 145 154 168 164 159 167 164 157 172 171 191 176 183 170 201 167 187 187 194 191 182 185 188 195 187 169 177 189 206 206 178 171 175 176 177 179 176 176 176 173 172 166 166 169 171
159 157 146 164 158 162 165 154 171 177 176 176 168 168 168 171 191 170 186 187 178 185 180 173 176 181 180 179 188 181 163 179 185 193 194 193 184 181 184 182 185 182 178 174 173 170 175
144 149 169 164 155 158 168 164 164 171 189 201 209 184 164 164 178 175 172 165 167 162 163 172 165 166 150 156 162 185 183 191 165 173 182 177 193 202 169 187 194 183 193 186 184 181 179
127 168 161 160 154 152 159 165 180 198 196 179 159 166 169 167 168 164 166 163 179 161 157 155 162 175 163 169 171 174 170 168 172 146 134 164 173 163 191 188 163 172 173 202 176 208 209
164 161 163 156 161 164 169 172 189 176 151 168 169 158 162 167 183 177 161 161 180 160 175 165 146 163 163 151 155 170 181 178 175 161 176 177 198 188 170 161 193 167 173 167 177 168 202
154 162 156 161 166 175 154 162 166 161 167 146 159 154 150 145 173 172 176 152 183 183 176 174 191 193 198 183 187 181 175 179 180 187 178 178 177 175 158 153 172 183 191 175 177 185 170
163 156 163 163 155 172 157 177 181 178 159 149 185 156 186 180 183 182 175 172 162 168 182 179 178 189 201 206 210 229 229 221 194 200 185 198 192 187 185 179 185 184 181 179 165 160 182
152 156 165 154 159 168 151 160 147 135 141 168 162 192 178 175 152 149 188 191 191 204 202 205 204 197 195 202 252 209 234 200 209 237 274 233 267 282 192 186 185 192 188 188 182 189 187
161 166 155 144 172 156 172 153 156 171 164 157 168 153 180 174 182 168 176 178 206 185 185 207 216 208 230 197 337 562 580 548 229 452 336 259 259 252 271 268 257 214 194 189 189 189 189
169 153 160 168 145 166 139 142 172 163 157 164 164 168 173 180 165 189 187 230 209 189 223 240 233 251 301 464 421 409 401 385 377 405 392 426 414 412 362 347 255 235 90 231 226 232 222
152 170 166 183 148 164 143 160 160 156 166 159 179 162 182 200 202 199 211 207 222 224 262 264 434 418 388 379 369 357 351 351 349 345 338 337 345 417 408 293 381 382 247 247 325 233 228
162 145 187 142 135 150 155 146 163 168 186 154 187 166 199 173 171 209 212 223 236 245 293 411 380 370 360 344 339 328 321 319 318 320 317 313 310 316 324 328 403 399 397 367 354 339 260
163 145 158 136 145 141 170 174 169 213 158 179 163 200 191 195 208 211 248 239 282 294 375 360 346 334 326 315 307 308 306 306 307 304 354 354 304 301 306 301 297 311 378 369 360 339 342
180 139 151 128 158 169 170 172 162 163 194 179 159 189 196 216 227 209 264 281 392 374 349 355 350 346 339 328 318 314 315 310 342 398 394 384 410 419 329 362 377 377 360 296 318 332 331
143 161 151 136 167 165 155 157 183 152 214 194 199 188 211 205 202 251 271 377 362 358 350 343 355 346 342 337 338 338 337 348 426 434 402 403 413 418 409 376 357 353 358 363 346 329 323
142 124 132 172 167 157 165 190 208 195 196 183 196 215 232 221 233 259 379 352 328 360 339 333 364 353 341 336 334 338 344 371 408 385 366 370 386 393 404 380 343 341 333 336 342 339 338
181 169 171 180 143 166 207 178 194 200 208 191 193 216 205 215 252 343 365 341 357 336 340 366 354 347 341 337 336 342 406 396 374 360 351 345 365 375 372 366 361 345 341 335 349 336 330
194 203 171 182 175 185 174 193 210 196 195 194 202 213 232 272 267 339 368 365 343 325 365 353 345 340 334 331 335 338 343 374 344 344 346 334 347 358 347 329 327 326 326 332 335 358 319
181 197 143 173 164 173 208 206 215 192 189 194 203 227 246 256 352 346 373 351 320 356 367 348 340 337 337 328 329 331 325 348 343 332 330 320 323 331 322 323 323 319 319 318 327 336 344
175 161 169 176 176 205 204 177 198 174 203 207 217 236 259 353 353 361 350 323 327 384 368 354 344 335 330 323 323 319 322 315 316 308 314 324 328 315 317 319 318 320 323 325 328 327 329
162 190 180 203 173 204 212 198 202 197 199 215 239 249 272 322 363 351 327 334 372 375 364 355 347 336 329 326 323 318 312 310 312 301 318 316 321 318 319 315 316 313 314 316 318 316 317
188 182 191 199 187 174 198 165 194 209 218 184 252 293 323 361 361 323 343 391 382 371 361 348 343 337 333 333 323 317 308 307 307 297 300 314 298 321 319 312 304 303 310 317 320 315 333
Wind_Speed
30 21 25 21 33 29 21 22 40 34 24 28 19 25 27 26 15 31 33 34 42 41 45 42 45 46 50 55 58 57 58 59 59 60 60 60 62 64 58 60 59 58 62 60 65 61 53
30 22 23 31 23 33 30 33 24 26 35 39 28 34 29 28 30 24 21 26 46 45 40 48 51 55 53 59 53 52 53 52 52 57 55 55 56 57 55 60 58 59 63 56 48 54 59
38 38 38 35 33 41 37 36 28 37 40 42 43 25 39 29 31 35 35 31 32 47 46 39 47 46 53 52 52 50 50 58 61 61 59 58 53 54 53 62 61 47 49 59 57 63 58
40 26 40 44 40 33 35 39 31 44 45 33 40 34 36 40 38 37 36 34 38 44 41 32 38 48 58 63 60 61 65 67 66 68 64 60 59 67 59 55 62 55 53 61 63 68 61
41 36 32 38 39 47 38 40 41 51 48 46 43 38 42 38 41 40 43 41 40 36 48 48 45 41 51 58 66 65 66 69 71 72 66 68 71 70 73 73 64 68 71 63 64 75 68
37 36 38 43 33 42 47 40 51 54 45 48 47 43 42 37 40 41 47 42 41 45 49 40 54 50 47 53 62 65 68 70 70 72 74 72 69 73 76 75 75 80 70 72 70 80 74
48 43 38 48 52 53 49 39 47 52 59 53 49 45 46 38 47 36 46 49 44 44 49 45 42 49 59 48 58 67 71 71 70 71 73 75 74 75 83 82 78 76 76 76 80 84 77
44 44 42 50 57 56 49 60 58 47 57 55 52 49 52 47 45 48 49 47 45 44 46 59 54 50 55 62 66 66 66 71 75 77 79 79 76 82 84 82 82 83 83 82 85 87 83
50 50 45 58 55 57 59 47 66 65 66 64 53 50 51 53 47 54 47 49 52 49 49 57 58 62 66 68 68 71 78 78 74 80 86 83 82 87 87 86 88 88 87 91 87 92 90
40 46 56 57 54 58 64 64 63 67 68 66 66 58 55 56 55 58 58 63 63 63 61 63 71 73 63 71 74 82 83 82 81 87 88 85 87 89 73 88 98 81 104 95 95 96 94
38 56 56 56 55 53 61 66 67 66 63 58 58 58 63 63 63 70 72 73 71 72 67 73 82 81 88 88 90 91 88 80 92 62 71 81 91 87 95 94 91 83 95 99 92 97 95
58 55 57 57 62 64 66 68 65 62 69 67 66 71 73 78 71 74 78 77 82 80 90 73 65 91 91 70 75 100 101 102 103 88 91 101 106 99 100 87 109 96 106 90 106 84 84
56 59 57 62 66 67 63 67 65 70 71 74 79 80 70 73 82 85 88 83 94 94 94 91 97 100 102 104 107 107 110 114 116 118 112 113 103 111 82 88 108 113 116 110 111 100 71
61 57 64 63 60 69 65 72 68 69 77 80 77 89 82 86 87 90 96 101 94 98 111 110 110 114 115 117 120 117 114 111 115 122 118 124 118 120 125 119 124 126 124 116 90 89 118
56 61 65 61 66 69 67 71 72 69 75 84 89 88 92 95 86 77 103 106 110 112 114 115 118 127 125 125 122 124 124 126 124 128 124 118 118 114 119 126 124 129 135 130 131 131 126
64 65 62 63 71 67 77 75 80 77 84 89 90 93 94 102 104 103 115 109 117 123 121 121 126 130 127 128 94 38 38 48 124 64 103 122 124 114 120 125 127 134 134 132 139 137 136
66 58 67 68 67 76 73 80 79 84 91 95 102 105 104 105 110 111 108 119 120 124 123 129 126 123 118 59 67 67 64 67 69 63 70 68 64 69 84 93 123 120 38 131 135 139 142
57 73 70 72 73 74 80 78 87 93 91 101 103 96 109 109 114 119 117 124 123 125 134 130 70 70 71 67 62 61 59 60 61 63 65 73 73 67 67 52 74 73 127 135 107 134 135
68 61 72 72 73 83 87 88 90 92 99 104 103 112 114 117 110 121 124 124 134 133 137 68 73 70 67 66 66 62 61 62 61 61 62 65 68 71 72 74 56 59 58 74 81 88 130
70 68 70 73 81 82 90 87 93 96 106 107 105 111 122 127 126 130 138 137 139 117 86 82 79 76 73 70 73 68 66 64 64 63 50 52 63 69 68 68 74 74 56 62 74 80 80
79 73 76 66 82 87 90 96 98 107 105 108 109 120 124 132 132 132 152 148 91 84 86 80 72 70 68 66 67 69 67 65 54 38 41 45 41 37 62 55 56 52 60 79 74 63 63
71 78 82 76 88 92 91 91 108 98 110 113 120 124 127 132 132 155 153 100 96 88 88 79 68 64 64 63 60 51 53 51 37 29 36 31 31 33 34 51 57 54 49 51 64 62 65
75 63 74 83 89 92 93 109 108 110 116 115 122 128 143 136 148 156 100 102 104 86 84 86 63 55 56 56 53 52 46 35 20 7 16 19 19 26 24 34 55 55 56 60 52 55 66
85 83 83 88 90 96 111 107 107 111 120 126 114 133 131 133 156 116 97 100 84 88 84 64 62 56 51 49 46 44 25 16 6 16 20 24 14 14 12 17 33 58 56 60 57 61 56
85 88 83 95 98 115 103 114 112 116 123 127 132 140 150 156 151 107 90 83 83 85 61 64 59 55 51 46 39 33 32 10 20 16 16 23 18 3 10 26 33 36 37 42 44 47 60
82 95 90 98 101 105 113 117 128 119 120 131 136 153 155 149 100 99 82 84 85 66 51 54 54 52 47 44 40 32 28 16 18 21 23 24 21 15 24 29 32 38 41 42 39 40 52
79 90 93 99 103 117 113 104 123 104 133 139 151 158 154 103 96 86 84 87 85 53 48 46 44 44 41 40 36 34 29 26 24 27 23 22 23 23 25 28 30 33 37 41 39 38 45
89 106 103 120 107 115 127 123 128 130 133 147 162 155 149 114 88 85 86 83 60 51 48 43 41 40 39 36 34 32 30 31 28 30 28 27 25 27 29 31 33 34 35 37 38 41 46
106 102 119 119 113 110 122 97 127 142 147 109 157 133 112 87 83 87 80 53 48 46 43 43 41 40 38 33 33 30 33 33 32 31 32 30 32 29 31 31 32 35 35 35 37 40 39
Wind_Direction
350 329 295 304 359 355 334 308 351 347 338 347 318 335 303 284 283 270 264 273 263 260 262 259 258 258 259 259 261 258 262 262 263 264 264 264 265 266 267 269 269 268 270 270 271 272 269
348 337 318 296 324 324 306 349 314 328 330 342 329 339 321 292 283 281 290 281 268 264 260 260 261 266 259 259 262 265 260 265 268 269 269 268 267 268 268 266 268 266 267 268 270 269 270
346 346 348 346 314 349 345 309 318 302 338 335 333 307 333 315 290 282 274 273 272 267 267 276 264 256 262 262 260 266 265 258 261 265 268 267 268 266 266 269 267 262 263 267 268 265 270
336 324 342 343 341 318 319 338 314 337 342 304 329 314 315 322 314 299 287 288 274 279 272 297 270 257 263 267 266 265 269 268 264 268 264 267 267 266 264 263 268 265 262 260 262 271 271
333 333 323 331 333 342 313 335 333 340 336 338 337 312 318 313 309 309 303 299 287 285 276 277 275 265 257 260 264 262 260 268 270 265 261 262 264 264 270 271 267 266 262 265 266 272 269
326 326 327 326 302 318 335 303 338 338 333 332 335 309 313 314 302 311 303 303 298 301 277 275 275 276 267 262 263 263 263 262 261 261 263 261 260 266 268 265 263 266 267 268 264 269 267
326 327 317 329 330 332 332 322 300 330 333 331 324 314 305 318 315 298 297 297 296 290 291 281 284 272 273 270 270 266 264 265 265 265 264 264 263 262 266 266 267 266 263 265 266 270 264
324 325 319 327 330 332 331 331 329 322 331 326 323 322 319 303 314 304 300 296 293 287 283 288 283 275 270 265 267 268 266 263 264 266 265 264 265 264 264 265 264 264 265 265 265 265 267
319 322 323 326 327 329 328 321 325 325 326 327 316 316 314 311 299 303 291 288 288 284 278 278 280 280 277 271 268 265 269 266 271 267 261 260 262 262 263 264 264 263 264 263 265 267 265
316 320 319 321 327 326 325 325 324 323 323 324 323 314 307 303 299 295 290 293 290 289 287 275 279 281 288 290 286 270 268 265 281 270 268 272 264 257 281 266 260 273 262 262 262 263 264
298 316 318 320 322 320 322 323 323 323 324 318 306 306 303 300 297 297 295 295 284 297 301 297 287 275 290 284 283 280 285 294 283 274 267 280 274 292 267 263 288 281 280 259 275 259 261
312 314 315 319 320 318 320 323 322 319 306 312 310 306 305 304 303 298 299 299 286 300 284 284 295 289 290 303 304 291 279 285 290 289 283 287 261 274 286 260 264 269 280 269 275 277 260
314 313 319 317 317 321 318 321 316 315 311 305 306 306 312 312 300 297 296 312 294 291 294 295 283 280 275 276 271 284 293 289 287 277 287 288 279 287 271 263 276 271 266 279 282 266 269
310 319 317 317 319 321 318 319 316 314 307 306 313 304 312 306 303 299 294 296 306 304 293 300 299 291 288 287 287 283 282 278 277 275 279 274 274 275 270 278 273 272 276 275 271 259 267
314 315 313 318 317 319 311 316 308 315 311 304 303 313 308 304 311 312 303 301 300 299 295 293 292 295 297 296 287 293 285 291 290 281 272 274 268 264 268 269 270 267 269 267 272 272 272
312 312 317 308 316 315 316 307 305 311 306 304 308 305 306 304 301 303 299 301 304 302 305 300 295 295 296 295 294 287 282 266 281 265 270 269 270 267 261 261 261 259 261 263 265 267 269
311 314 315 315 302 316 308 306 313 308 304 304 302 303 304 303 303 304 303 315 307 303 310 307 303 304 301 300 297 292 289 284 280 270 270 264 264 267 264 263 258 259 281 258 258 259 260
312 311 314 309 302 311 303 309 303 300 303 301 309 310 304 310 307 305 306 304 308 307 315 312 307 306 305 303 301 297 292 286 280 275 271 271 270 253 255 261 256 255 256 256 257 257 258
312 300 313 301 309 302 301 304 301 303 314 304 311 303 313 304 310 307 307 310 313 313 315 315 314 310 308 307 302 301 297 292 287 281 274 268 268 266 263 261 254 245 243 236 245 251 254
306 301 309 306 306 307 308 306 303 319 302 308 308 315 306 306 310 311 324 316 319 318 317 317 314 311 309 305 303 299 295 292 288 283 279 274 269 267 264 261 258 256 247 241 239 247 251
311 300 304 319 304 303 307 309 304 302 315 312 309 307 311 317 321 312 325 323 320 319 317 316 314 310 305 301 297 295 294 290 289 291 286 285 280 259 259 249 248 239 232 255 251 249 247
299 306 301 314 297 299 307 317 314 312 324 314 311 307 318 312 316 329 325 320 319 320 317 316 316 313 310 309 306 301 297 295 302 280 279 288 291 273 250 238 246 248 247 240 237 238 238
298 318 317 304 300 306 317 320 324 318 317 314 314 320 329 323 326 327 321 320 320 320 319 318 318 316 312 311 311 308 304 299 310 321 295 304 303 286 263 240 239 249 244 246 246 233 231
307 312 306 317 312 305 326 314 319 319 326 312 320 322 320 325 327 322 321 322 322 320 321 317 317 319 317 316 316 312 311 311 260 286 294 290 309 291 250 261 249 246 249 248 243 238 225
316 323 303 325 320 324 318 319 327 316 314 321 320 324 327 328 325 322 321 322 322 322 319 318 318 318 318 318 318 315 321 280 291 283 284 292 310 315 229 224 234 238 242 247 246 239 229
318 327 307 311 302 315 326 326 332 315 319 320 322 329 328 328 323 323 322 321 323 321 316 315 315 316 317 318 320 321 317 305 269 279 284 294 292 272 242 242 244 249 253 254 252 245 235
312 309 308 318 316 325 324 318 322 322 325 327 328 328 329 322 324 323 323 323 323 316 316 313 311 310 312 313 313 312 313 305 296 303 290 287 280 275 267 254 253 253 253 256 261 255 247
297 327 324 326 310 326 333 324 328 326 325 329 331 328 327 323 323 324 324 322 318 315 314 313 310 310 309 309 306 303 300 298 296 292 290 287 278 274 269 266 261 260 262 260 255 252 249
324 325 326 326 319 317 327 318 322 329 328 321 330 326 323 323 322 324 322 317 315 313 313 312 309 308 305 300 295 293 294 293 291 286 285 282 283 277 273 274 274 272 270 269 264 262 264